Vertical_Velocity
-4 -1 -1 -0 -1 -1 -5 -3 -3 -2 1 1 -0 1 -1 -1 0 -0 -1 -1 -1 0 1 1 1 2 3 2 2 1 1 -1 -0 1 1 2 1 -0 -1 -3 1 -0 -2
-2 -3 0 -1 -2 1 -1 -3 -2 -1 -1 0 -0 1 1 1 -1 -1 2 -2 -1 -0 0 1 2 3 1 1 1 1 1 -0 1 2 2 -1 2 -1 0 -2 -0 -2 -1
-1 -4 -1 -1 -1 2 -0 -2 -1 0 -1 -2 -0 -0 -2 -0 2 0 0 2 -0 1 -2 -1 1 3 3 1 1 1 1 2 3 1 1 2 -0 1 -1 1 -0 1 -1
-3 -3 -2 1 -1 -1 1 -1 -2 -1 -2 -2 -2 -3 -2 -1 -2 0 -1 2 -2 2 4 1 1 1 1 2 2 1 1 0 2 3 2 -1 1 1 -0 2 0 -1 1
-3 -2 -2 -1 -1 -0 0 1 -1 -2 2 -2 -1 -2 -2 -1 0 0 1 0 0 -0 3 4 2 3 -0 -0 0 -1 0 1 2 1 1 2 1 -2 -1 -0 -1 -0 -0
-5 -2 -2 -1 -1 -2 -1 -1 1 -0 0 -3 -2 -2 1 -0 -3 -1 -4 -0 -1 1 2 2 5 1 -1 -1 -0 1 2 -1 -0 2 1 1 1 -0 -2 -1 -2 0 0
-4 -4 -3 0 -1 0 -3 0 -0 -0 2 -2 1 -0 0 0 2 -4 4 -0 5 -0 -0 -2 2 2 -1 3 -0 1 -0 2 0 3 2 0 1 1 0 -2 -3 1 -0
-1 -4 -1 -2 -1 -0 1 -5 4 5 -0 1 -0 -1 -1 6 10 1 0 1 0 2 -2 -1 -1 -2 3 3 -0 1 1 3 2 2 0 1 1 2 -0 -4 -0 1 0
-0 -1 1 -2 -4 -3 1 -1 -0 3 3 2 11 18 50 24 22 9 -0 -1 2 4 1 -2 0 1 0 -2 6 0 2 1 -5 2 1 2 -3 -1 -1 -2 2 -0 2
-2 -2 2 -3 -3 -2 -3 -0 1 -1 -2 -2 8 -0 4 14 16 -0 16 0 2 -2 5 2 -4 -0 2 -1 0 0 -0 -0 3 2 0 -3 -2 2 -3 1 -1 2 1
0 -5 7 -3 -1 -3 -0 -1 -0 -2 -0 -1 1 1 1 -1 -0 2 13 3 11 15 5 -1 -3 -0 -1 0 3 0 -1 2 2 1 -3 0 1 -2 0 1 -0 0 1
2 -3 7 -4 -1 -1 -1 2 -0 -1 0 -2 -2 2 1 -1 4 0 -4 5 27 9 14 2 -1 0 -2 -0 -0 0 2 2 3 -1 1 1 -3 1 0 -0 -0 -1 -0
0 0 6 -2 -2 -3 1 0 -1 0 -0 -1 -2 -0 2 -1 1 -1 3 11 7 20 4 -0 -2 2 -3 -0 -1 2 -1 -0 1 1 -1 3 -5 2 0 1 0 -0 -1
-3 -2 5 -1 -2 -0 1 3 3 -0 -5 -1 0 -1 -2 -4 -4 -2 7 6 -4 14 3 -1 -1 -2 -4 -0 2 -3 1 0 1 -1 1 0 1 2 -1 1 -2 1 1
-1 1 4 -1 1 1 2 2 3 1 1 2 2 -1 -1 -4 -0 3 -1 -1 1 11 2 -0 -1 -2 0 2 1 0 0 -1 2 0 7 -2 2 -0 2 1 -0 0 1
-4 -1 4 0 2 1 -1 2 2 -0 -2 -1 1 -1 -0 -1 1 0 11 2 -1 13 -1 -1 1 -2 -1 -1 2 -1 -1 1 2 4 1 -1 2 0 2 1 -1 1 0
-3 -0 3 -1 1 -1 -0 -0 2 -0 -3 0 1 -2 -2 -3 2 -5 2 2 -3 4 3 0 -0 -0 1 0 2 0 1 0 0 8 1 -1 -1 -1 1 1 -1 3 1
-3 -1 3 1 2 0 -1 -0 -1 1 -0 -1 1 1 -2 0 -2 -0 1 5 9 10 -1 8 1 -0 0 1 2 -2 -1 1 -2 3 -1 1 -1 -0 -2 -0 2 1 -0
-3 -0 -3 3 0 -0 1 1 -0 -2 -1 -0 0 -1 4 27 -2 -1 -2 1 9 4 3 4 -2 1 1 -1 -0 -2 -0 -3 -2 4 2 -2 0 -1 1 -2 -0 0 -0
-1 1 -0 1 1 1 0 2 -2 -1 -1 -1 -1 -0 -2 1 25 -1 0 1 3 3 6 -0 -0 1 -2 -3 -4 0 -1 1 5 4 3 1 0 0 0 -0 -2 -1 -2
1 -0 3 -2 1 -1 1 1 -2 2 -1 -1 1 -1 0 -2 2 4 1 3 -0 12 5 -4 -1 -0 -3 0 -1 1 -1 2 0 2 1 0 0 0 -0 -0 0 1 1
1 -1 3 -2 0 1 1 1 0 2 0 -0 0 3 1 -2 3 1 4 2 7 6 -1 1 3 1 2 -1 1 0 -2 1 2 1 8 8 -2 -1 1 0 -0 -0 1
2 3 1 -2 1 2 -1 -0 1 1 1 1 -1 2 -1 9 2 2 9 4 5 7 -1 0 -1 3 0 -3 -1 0 -0 3 -1 3 4 1 3 2 9 -0 -1 1 -1
3 4 0 -1 0 1 -1 0 1 2 0 -1 -2 -2 -0 5 12 12 3 1 1 -1 -0 -0 -1 -2 2 1 -2 -1 -0 1 -3 2 -0 1 1 1 3 9 9 1 0
-1 4 0 -1 -1 0 0 0 1 1 2 -1 1 -1 -2 -3 -2 11 5 3 3 5 4 2 -1 -0 -1 -3 -2 -0 -0 -1 -2 0 -1 -0 4 2 -1 -0 -1 4 10
-3 4 -2 -1 -1 1 -0 0 -0 1 0 0 -1 3 1 1 -1 -3 -1 0 -1 -2 1 6 3 2 0 1 -1 1 1 3 3 2 1 2 3 2 -1 -0 -1 -1 -1
Height
5825 5825 5825 5824 5824 5825 5824 5823 5822 5822 5821 5820 5820 5821 5820 5820 5819 5821 5823 5825 5827 5830 5832 5835 5838 5840 5843 5846 5849 5851 5854 5856 5858 5859 5861 5861 5862 5863 5864 5865 5865 5864 5864
5821 5821 5821 5820 5820 5819 5820 5820 5820 5818 5817 5816 5815 5815 5816 5816 5816 5816 5817 5819 5822 5825 5827 5830 5833 5836 5840 5843 5846 5849 5851 5853 5855 5857 5858 5859 5861 5861 5862 5863 5863 5863 5861
5816 5815 5815 5815 5815 5815 5815 5815 5815 5815 5813 5812 5811 5811 5811 5812 5811 5811 5812 5814 5816 5819 5821 5825 5829 5832 5836 5840 5843 5846 5848 5850 5852 5854 5855 5857 5858 5860 5860 5860 5860 5861 5860
5809 5809 5809 5809 5810 5810 5809 5810 5810 5810 5808 5807 5806 5806 5806 5806 5807 5808 5809 5812 5811 5814 5817 5820 5824 5829 5833 5837 5840 5843 5845 5847 5850 5851 5853 5854 5855 5857 5857 5858 5858 5859 5859
5805 5804 5805 5804 5803 5804 5805 5804 5804 5804 5803 5803 5802 5801 5801 5801 5803 5803 5805 5807 5808 5810 5812 5817 5822 5825 5829 5832 5836 5838 5842 5844 5847 5849 5851 5851 5853 5854 5855 5855 5856 5856 5857
5801 5799 5799 5800 5798 5797 5799 5798 5798 5798 5796 5797 5797 5796 5796 5797 5798 5799 5800 5801 5802 5804 5808 5813 5818 5822 5826 5829 5832 5835 5838 5841 5844 5846 5848 5849 5850 5851 5852 5853 5853 5854 5855
5795 5793 5792 5794 5794 5791 5791 5792 5792 5792 5791 5792 5791 5790 5789 5790 5790 5793 5795 5797 5797 5798 5803 5809 5815 5818 5822 5825 5828 5832 5834 5838 5840 5842 5844 5845 5847 5848 5850 5850 5851 5852 5853
5790 5788 5786 5788 5788 5785 5784 5786 5786 5785 5786 5786 5785 5784 5782 5780 5781 5786 5788 5792 5795 5797 5799 5804 5810 5813 5817 5820 5823 5828 5831 5834 5837 5838 5841 5842 5843 5845 5847 5848 5849 5850 5850
5785 5782 5782 5783 5781 5779 5778 5780 5780 5780 5779 5780 5779 5778 5767 5777 5775 5778 5783 5787 5792 5794 5796 5798 5803 5807 5810 5814 5819 5823 5827 5830 5832 5835 5837 5838 5839 5842 5843 5845 5846 5847 5848
5779 5777 5779 5777 5775 5774 5772 5774 5775 5774 5774 5775 5774 5775 5773 5773 5775 5780 5781 5782 5786 5789 5791 5794 5797 5801 5806 5810 5814 5819 5822 5826 5829 5831 5833 5834 5836 5838 5840 5841 5843 5844 5844
5773 5772 5773 5771 5769 5768 5767 5768 5770 5770 5768 5769 5768 5769 5770 5770 5772 5776 5777 5779 5780 5784 5786 5789 5793 5798 5803 5807 5810 5814 5818 5822 5825 5827 5830 5831 5833 5835 5837 5838 5839 5840 5841
5769 5767 5768 5765 5764 5762 5762 5764 5765 5764 5763 5763 5763 5763 5764 5766 5766 5765 5771 5773 5778 5782 5784 5786 5789 5794 5799 5803 5806 5810 5814 5816 5820 5823 5825 5827 5830 5831 5833 5833 5835 5837 5838
5762 5762 5762 5760 5759 5756 5757 5759 5759 5758 5757 5758 5758 5757 5758 5759 5761 5761 5766 5770 5773 5776 5780 5783 5785 5790 5795 5799 5802 5805 5808 5811 5815 5817 5820 5823 5825 5828 5829 5830 5832 5833 5834
5755 5756 5756 5755 5753 5751 5751 5753 5754 5753 5751 5752 5752 5751 5752 5752 5754 5756 5761 5765 5769 5773 5776 5778 5781 5785 5791 5795 5799 5801 5804 5807 5810 5812 5816 5818 5821 5824 5826 5826 5828 5830 5831
5750 5751 5750 5749 5747 5746 5745 5746 5747 5748 5748 5746 5746 5746 5747 5747 5749 5752 5756 5760 5764 5770 5772 5775 5778 5782 5786 5790 5794 5796 5799 5802 5804 5808 5812 5815 5818 5820 5822 5823 5824 5826 5827
5744 5743 5744 5743 5741 5740 5739 5740 5741 5742 5741 5740 5739 5739 5740 5741 5743 5746 5749 5755 5759 5764 5768 5771 5774 5779 5782 5786 5787 5790 5793 5796 5800 5803 5807 5810 5813 5815 5817 5818 5820 5820 5821
5737 5736 5736 5736 5735 5734 5734 5735 5735 5735 5734 5733 5734 5733 5733 5735 5737 5741 5744 5749 5753 5759 5763 5767 5769 5774 5777 5780 5782 5785 5788 5791 5795 5799 5802 5806 5809 5810 5812 5814 5816 5818 5818
5730 5730 5730 5730 5730 5729 5729 5730 5730 5730 5729 5728 5727 5728 5728 5728 5732 5737 5740 5744 5749 5754 5760 5762 5764 5769 5770 5773 5776 5779 5782 5785 5789 5793 5797 5800 5803 5805 5807 5808 5810 5812 5813
5725 5725 5725 5724 5724 5724 5725 5725 5724 5724 5723 5723 5722 5721 5722 5723 5728 5731 5734 5739 5744 5750 5755 5758 5759 5762 5764 5767 5771 5775 5777 5780 5785 5788 5792 5796 5798 5801 5802 5803 5803 5805 5807
5719 5720 5720 5720 5719 5720 5719 5719 5719 5719 5717 5716 5714 5714 5716 5719 5719 5726 5729 5734 5738 5744 5749 5753 5754 5757 5759 5762 5768 5770 5774 5777 5781 5785 5788 5791 5794 5796 5797 5799 5800 5800 5800
5714 5716 5716 5715 5715 5714 5715 5715 5715 5714 5712 5710 5707 5708 5711 5713 5715 5721 5725 5729 5734 5739 5743 5747 5750 5753 5757 5761 5763 5768 5772 5774 5778 5781 5782 5784 5788 5790 5792 5794 5793 5794 5794
5709 5711 5712 5711 5710 5711 5711 5712 5711 5709 5706 5705 5704 5705 5707 5706 5708 5715 5721 5725 5730 5736 5741 5745 5749 5751 5755 5758 5760 5763 5766 5770 5772 5774 5777 5778 5781 5783 5785 5785 5786 5787 5787
5705 5706 5707 5707 5707 5707 5708 5708 5707 5705 5704 5702 5701 5702 5703 5703 5705 5711 5717 5721 5727 5733 5739 5743 5747 5751 5753 5755 5756 5761 5763 5765 5765 5768 5770 5773 5774 5776 5777 5777 5778 5779 5779
5700 5702 5702 5703 5703 5704 5705 5705 5703 5702 5701 5699 5698 5699 5700 5702 5706 5709 5714 5720 5726 5732 5738 5741 5745 5747 5750 5751 5752 5756 5756 5759 5759 5762 5762 5765 5766 5768 5769 5770 5770 5770 5771
5694 5698 5697 5699 5700 5700 5701 5702 5701 5700 5699 5699 5698 5698 5699 5701 5704 5709 5714 5718 5722 5727 5731 5736 5740 5743 5745 5747 5748 5749 5751 5754 5755 5755 5755 5756 5757 5757 5757 5759 5759 5761 5763
5690 5693 5693 5694 5695 5696 5699 5699 5699 5699 5698 5698 5698 5697 5698 5700 5702 5705 5710 5714 5718 5722 5726 5730 5733 5737 5739 5740 5742 5744 5746 5748 5747 5748 5749 5748 5749 5748 5749 5750 5751 5752 5753